TimeMST,TemperatureF,Dew PointF,Humidity,Sea Level PressureIn,VisibilityMPH,Wind Direction,Wind SpeedMPH,Gust SpeedMPH,PrecipitationIn,Events,Conditions,WindDirDegrees,DateUTC
12:05 AM,-13.0,-9999,N/A,30.30,10.0,Calm,Calm,-,N/A,,Clear,0,2013-01-04 07:05:00
12:25 AM,-14.8,-9999,N/A,30.29,10.0,Calm,Calm,-,N/A,,Clear,0,2013-01-04 07:25:00
12:45 AM,-16.6,-9999,N/A,30.29,10.0,Calm,Calm,-,N/A,,Clear,0,2013-01-04 07:45:00
1:05 AM,-16.6,-9999,N/A,30.29,10.0,SSW,3.5,-,N/A,,Clear,200,2013-01-04 08:05:00
1:25 AM,-16.6,-9999,N/A,30.28,10.0,Calm,Calm,-,N/A,,Clear,0,2013-01-04 08:25:00
1:45 AM,-16.6,-9999,N/A,30.28,10.0,Calm,Calm,-,N/A,,Clear,0,2013-01-04 08:45:00
2:05 AM,-16.6,-9999,N/A,30.28,10.0,Calm,Calm,-,N/A,,Clear,0,2013-01-04 09:05:00
9:25 AM,-13.0,-9999,N/A,30.30,8.0,Calm,Calm,-,N/A,,Mostly Cloudy,0,2013-01-04 16:25:00
9:45 AM,-9.4,-9999,N/A,30.29,3.0,Calm,Calm,-,N/A,,Partly Cloudy,0,2013-01-04 16:45:00
10:05 AM,-2.2,-9999,N/A,30.30,10.0,Calm,Calm,-,N/A,,Clear,0,2013-01-04 17:05:00
10:25 AM,-2.2,-9999,N/A,30.29,10.0,Calm,Calm,-,N/A,,Clear,0,2013-01-04 17:25:00
10:45 AM,-0.4,-9999,N/A,30.29,10.0,Calm,Calm,-,N/A,,Clear,0,2013-01-04 17:45:00
11:05 AM,1.4,-9999,N/A,30.28,10.0,Calm,Calm,-,N/A,,Clear,0,2013-01-04 18:05:00
11:25 AM,3.2,-9999,N/A,30.27,10.0,Calm,Calm,-,N/A,,Clear,0,2013-01-04 18:25:00
11:45 AM,5.0,-9999,N/A,30.27,10.0,Calm,Calm,-,N/A,,Clear,0,2013-01-04 18:45:00
12:05 PM,6.8,-9999,N/A,30.26,10.0,NE,3.5,-,N/A,,Clear,50,2013-01-04 19:05:00
12:25 PM,8.6,-9999,N/A,30.25,10.0,Calm,Calm,-,N/A,,Clear,0,2013-01-04 19:25:00
12:45 PM,10.4,-9999,N/A,30.24,10.0,Calm,Calm,-,N/A,,Clear,0,2013-01-04 19:45:00
1:05 PM,12.2,-9999,N/A,30.22,10.0,Calm,Calm,-,N/A,,Clear,0,2013-01-04 20:05:00
1:25 PM,14.0,-9999,N/A,30.21,10.0,Calm,Calm,-,N/A,,Clear,0,2013-01-04 20:25:00
1:45 PM,14.0,-9999,N/A,30.20,10.0,NE,5.8,-,N/A,,Clear,40,2013-01-04 20:45:00
2:05 PM,14.0,-9999,N/A,30.20,10.0,NE,5.8,-,N/A,,Clear,50,2013-01-04 21:05:00
2:25 PM,15.8,-9999,N/A,30.19,10.0,NNE,3.5,-,N/A,,Clear,30,2013-01-04 21:25:00
2:45 PM,17.6,-9999,N/A,30.19,10.0,Calm,Calm,-,N/A,,Clear,0,2013-01-04 21:45:00
3:05 PM,17.6,-9999,N/A,30.19,10.0,Calm,Calm,-,N/A,,Clear,0,2013-01-04 22:05:00
3:25 PM,19.4,-9999,N/A,30.20,10.0,Calm,Calm,-,N/A,,Clear,0,2013-01-04 22:25:00
4:05 PM,19.4,-9999,N/A,30.22,10.0,Calm,Calm,-,N/A,,Clear,0,2013-01-04 23:05:00
4:25 PM,15.8,-9999,N/A,30.21,10.0,Calm,Calm,-,N/A,,Clear,0,2013-01-04 23:25:00
4:45 PM,14.0,-9999,N/A,30.21,10.0,Calm,Calm,-,N/A,,Clear,0,2013-01-04 23:45:00
5:05 PM,8.6,-9999,N/A,30.22,10.0,WNW,3.5,-,N/A,,Clear,300,2013-01-05 00:05:00
5:25 PM,6.8,-9999,N/A,30.21,10.0,Calm,Calm,-,N/A,,Clear,0,2013-01-05 00:25:00
5:45 PM,5.0,-9999,N/A,30.22,10.0,Calm,Calm,-,N/A,,Clear,0,2013-01-05 00:45:00
6:05 PM,1.4,-9999,N/A,30.21,10.0,Calm,Calm,-,N/A,,Clear,0,2013-01-05 01:05:00
6:25 PM,-0.4,-9999,N/A,30.22,10.0,Calm,Calm,-,N/A,,Clear,0,2013-01-05 01:25:00
6:45 PM,-0.4,-9999,N/A,30.22,10.0,Calm,Calm,-,N/A,,Clear,0,2013-01-05 01:45:00
7:05 PM,-2.2,-9999,N/A,30.22,10.0,South,3.5,-,N/A,,Clear,190,2013-01-05 02:05:00
7:25 PM,-4.0,-9999,N/A,30.23,10.0,Calm,Calm,-,N/A,,Clear,0,2013-01-05 02:25:00
7:45 PM,-5.8,-9999,N/A,30.22,10.0,Calm,Calm,-,N/A,,Clear,0,2013-01-05 02:45:00
8:25 PM,-7.6,-9999,N/A,30.23,10.0,Calm,Calm,-,N/A,,Clear,0,2013-01-05 03:25:00
8:45 PM,-7.6,-9999,N/A,30.23,10.0,Calm,Calm,-,N/A,,Clear,0,2013-01-05 03:45:00
9:05 PM,-9.4,-9999,N/A,30.23,10.0,Calm,Calm,-,N/A,,Clear,0,2013-01-05 04:05:00
9:25 PM,-9.4,-9999,N/A,30.23,10.0,Calm,Calm,-,N/A,,Clear,0,2013-01-05 04:25:00
9:45 PM,-11.2,-9999,N/A,30.23,10.0,SSW,4.6,-,N/A,,Clear,200,2013-01-05 04:45:00
10:05 PM,-13.0,-9999,N/A,30.23,10.0,Calm,Calm,-,N/A,,Clear,0,2013-01-05 05:05:00
10:25 PM,-13.0,-9999,N/A,30.24,10.0,Calm,Calm,-,N/A,,Clear,0,2013-01-05 05:25:00
10:45 PM,-13.0,-9999,N/A,30.24,10.0,Calm,Calm,-,N/A,,Clear,0,2013-01-05 05:45:00
11:05 PM,-13.0,-9999,N/A,30.24,10.0,WSW,3.5,-,N/A,,Clear,240,2013-01-05 06:05:00
11:25 PM,-14.8,-9999,N/A,30.24,10.0,Calm,Calm,-,N/A,,Clear,0,2013-01-05 06:25:00
11:45 PM,-16.6,-9999,N/A,30.24,10.0,SE,3.5,-,N/A,,Clear,140,2013-01-05 06:45:00